Regional Weather Roundup
Issued by NWS

Home | Current Version | Previous Version | Graphics & Text | Print | Product List | Glossary On
Versions: 1 2 3 4 5 6 7 8 9 10 11 12 13 14 15 16 17 18 19 20 21 22 23 24 25 26 27 28 29 30 31 32 33 34 35 36 37 38 39 40 41 42 43 44 45 46 47 48 49 50
000
ASUS43 KFSD 301010
RWRSD

WEATHER ROUNDUP FOR SOUTH DAKOTA
NATIONAL WEATHER SERVICE SIOUX FALLS SD
500 AM CDT SAT APR 30 2016

NOTE: "FAIR" INDICATES FEW OR NO CLOUDS BELOW 12,000 FEET WITH NO
SIGNIFICANT WEATHER AND/OR OBSTRUCTIONS TO VISIBILITY.


SDZ001>005-009-010-012>017-301100-
NORTHWEST AND NORTH CENTRAL SOUTH DAKOTA

CITY           SKY/WX    TMP DP  RH WIND       PRES   REMARKS
BUFFALO          N/A     41  34  76 N8        30.02R
FAITH            N/A     38  35  89 N8        30.06S
MOBRIDGE       CLOUDY    41  38  89 N10       30.05F
$$

SDZ012>016-024>037-041>051-057-063-072>074-301100-
SOUTHWEST AND SOUTH CENTRAL SOUTH DAKOTA

CITY           SKY/WX    TMP DP  RH WIND       PRES   REMARKS
RAPID CTY ARPT CLOUDY    40  37  89 N12       30.02S
PIERRE         PTCLDY    41  37  86 NE13      30.01R
CUSTER         CLOUDY    31  29  92 NE18G30   29.95S WCI  19
ELLSWORTH AFB  CLOUDY    40  40 100 N12       30.03R
PHILIP         CLOUDY    42  37  82 N12       30.01S
PINE RIDGE     LGT RAIN  37  34  89 N15       29.94F
WINNER         LGT RAIN  44  40  85 NE10      29.94S
$$

SDZ004>011-016>023-039-040-301100-
NORTHEAST SOUTH DAKOTA

CITY           SKY/WX    TMP DP  RH WIND       PRES   REMARKS
ABERDEEN       PTCLDY    40  36  86 N9        30.07S
WATERTOWN      CLOUDY    41  34  76 E16       30.03S
BROOKINGS      CLOUDY    40  36  86 NE8       29.99F
SISSETON         N/A     42  34  73 E12       30.10S
$$

SDZ017-020-022-023-036>040-048>070-301100-
SOUTHEAST SOUTH DAKOTA

CITY           SKY/WX    TMP DP  RH WIND       PRES   REMARKS
SIOUX FALLS    CLOUDY    44  38  79 E16G26    29.94F
HURON          CLOUDY    42  38  85 NE10      30.00S
CHAMBERLAIN    MOCLDY    44  42  93 NE9       29.97S
MITCHELL       CLOUDY    43  40  89 NE12      29.96F
YANKTON        CLOUDY    45  37  76 NE22      29.88S
$$

ABBREVIATIONS USED IN REMARKS
   TC - TEMPERATURE IN CELSIUS
  WCI - WIND CHILL INDEX
   HX - HEAT INDEX
  VSB - VISIBILITY





USA.gov is the U.S. government's official web portal to all federal, state and local government web resources and services.